DW7898 Weather Reports


time (UTC)temp
C
wind
direction
speed
KPH
gust
KPH
rain 1hr
cm
rain 24hr
cm
rain mn
cm
humidity
%
barometer
mb
20260902040339 21 38 3.2 4.8 0.00 0.00 0.00 77 1021.2
20260902035349 21 38 0.0 3.2 0.00 0.00 0.00 77 1021.2
20260902034347 21 39 1.6 6.4 0.00 0.00 0.00 77 1021.1
20260902033345 21 38 4.8 6.4 0.00 0.00 0.00 77 1021.3
20260902032343 21 39 0.0 4.8 0.00 0.00 0.00 77 1021.2
20260902031341 21 40 0.0 3.2 0.00 0.00 0.00 77 1021.2
20260902030346 22 40 0.0 4.8 0.00 0.00 0.00 76 1021.2
20260902025358 22 40 1.6 6.4 0.00 0.00 0.00 76 1021.2
20260902024358 22 39 1.6 6.4 0.00 0.00 0.00 76 1021.4
20260902023358 22 41 3.2 6.4 0.00 0.00 0.00 75 1021.5
20260902022358 22 42 1.6 6.4 0.00 0.00 0.00 75 1021.4
20260902021357 22 42 1.6 6.4 0.00 0.00 0.00 74 1021.4
20260902015359 22 42 3.2 4.8 0.00 0.00 0.00 74 1021.3
20260902014341 22 42 3.2 4.8 0.00 0.00 0.00 74 1021.5
20260902013400 22 42 0.0 4.8 0.00 0.00 0.00 74 1021.7
20260902012355 22 42 1.6 6.4 0.00 0.00 0.00 73 1021.7
20260902011356 22 42 1.6 8.0 0.00 0.00 0.00 73 1021.8
20260902010337 22 43 3.2 4.8 0.00 0.00 0.00 73 1021.8
20260902005351 22 43 4.8 6.4 0.00 0.00 0.00 73 1022.0
20260902004357 22 43 1.6 6.4 0.00 0.00 0.00 72 1021.9
20260902003357 23 44 3.2 6.4 0.00 0.00 0.00 71 1021.9
20260902002355 23 147 3.2 4.8 0.00 0.00 0.00 70 1022.0
20260902001341 23 152 1.6 3.2 0.00 0.00 0.00 70 1022.0
20260902000340 23 152 1.6 6.4 0.00 0.00 0.00 70 1022.0
20260901235339 23 155 0.0 0.0 0.00 0.00 0.00 70 1021.8
20260901234339 23 155 0.0 0.0 0.00 0.00 0.00 69 1021.8
20260901233349 23 155 0.0 0.0 0.00 0.00 0.00 69 1021.8
20260901232359 23 155 0.0 0.0 0.00 0.00 0.00 69 1021.9
20260901231339 23 155 0.0 0.0 0.00 0.00 0.00 68 1021.9
20260901230345 23 155 0.0 0.0 0.00 0.00 0.00 68 1021.8
20260901225357 23 155 0.0 0.0 0.00 0.00 0.00 68 1021.6
20260901224358 23 155 0.0 0.0 0.00 0.00 0.00 68 1021.5
20260901223339 24 155 0.0 3.2 0.00 0.00 0.00 67 1021.4
20260901222340 24 155 1.6 3.2 0.00 0.00 0.00 66 1021.5
20260901221341 24 156 0.0 1.6 0.00 0.00 0.00 66 1021.4
20260901220346 24 156 0.0 1.6 0.00 0.00 0.00 65 1021.3
20260901215340 24 156 0.0 1.6 0.00 0.00 0.00 66 1021.3
20260901214343 24 156 0.0 1.6 0.00 0.00 0.00 65 1021.1
20260901213343 24 156 0.0 1.6 0.00 0.00 0.00 65 1021.0
20260901212341 24 156 0.0 1.6 0.00 0.00 0.00 65 1020.9
20260901211345 25 156 3.2 4.8 0.00 0.00 0.00 65 1020.9
20260901210345 25 156 0.0 4.8 0.00 0.00 0.00 64 1020.7
20260901205355 25 156 0.0 3.2 0.00 0.00 0.00 64 1020.8
20260901204357 25 156 1.6 4.8 0.00 0.00 0.00 64 1020.8
20260901203339 25 158 1.6 6.4 0.00 0.00 0.00 63 1020.6
20260901202356 25 220 1.6 6.4 0.00 0.00 0.00 61 1020.6
20260901201339 26 221 1.6 4.8 0.00 0.00 0.00 60 1020.4
20260901200345 26 221 1.6 3.2 0.00 0.00 0.00 60 1020.5
20260901195344 26 221 1.6 4.8 0.00 0.00 0.00 60 1020.5
20260901194345 26 221 1.6 6.4 0.00 0.00 0.00 60 1020.3
20260901193345 26 221 3.2 4.8 0.00 0.00 0.00 59 1020.2
20260901192338 26 221 1.6 6.4 0.00 0.00 0.00 59 1020.2
20260901191338 26 224 1.6 4.8 0.00 0.00 0.00 58 1020.1
20260901190341 26 224 3.2 6.4 0.00 0.00 0.00 58 1019.8
20260901185340 26 224 4.8 8.0 0.00 0.00 0.00 57 1019.7
20260901184344 27 235 3.2 8.0 0.00 0.00 0.00 57 1019.7
20260901183346 27 235 3.2 4.8 0.00 0.00 0.00 56 1019.5
20260901182345 27 235 3.2 4.8 0.00 0.00 0.00 56 1019.4
20260901181347 27 235 1.6 8.0 0.00 0.00 0.00 56 1019.5
20260901180347 27 232 4.8 8.0 0.00 0.00 0.00 55 1019.9
20260901175400 27 231 4.8 11.3 0.00 0.00 0.00 55 1020.0
20260901174358 27 238 1.6 9.7 0.00 0.00 0.00 55 1020.2
20260901173354 27 243 6.4 12.9 0.00 0.00 0.00 55 1020.1
20260901172341 27 204 4.8 14.5 0.00 0.00 0.00 56 1020.4
20260901171359 27 231 6.4 17.7 0.00 0.00 0.00 55 1020.3
20260901170401 27 236 8.0 12.9 0.00 0.00 0.00 56 1020.5
20260901165352 27 233 4.8 12.9 0.00 0.00 0.00 58 1020.3
20260901164352 27 185 4.8 11.3 0.00 0.00 0.00 57 1020.4
20260901163352 27 208 4.8 14.5 0.00 0.00 0.00 58 1020.5
20260901162343 27 199 6.4 14.5 0.00 0.00 0.00 57 1020.8
20260901161341 28 222 6.4 14.5 0.00 0.00 0.00 56 1020.6
20260901160354 28 254 4.8 11.3 0.00 0.00 0.00 55 1020.6
20260901155348 28 270 4.8 19.3 0.00 0.00 0.00 55 1020.6
20260901154343 28 213 8.0 19.3 0.00 0.00 0.00 56 1020.7
20260901153341 27 202 4.8 16.1 0.00 0.00 0.00 58 1020.8
20260901152341 27 226 6.4 14.5 0.00 0.00 0.00 60 1020.6
20260901151400 27 220 11.3 19.3 0.00 0.00 0.00 61 1020.8
20260901150352 27 229 11.3 20.9 0.00 0.00 0.00 61 1020.9
20260901145403 27 214 8.0 17.7 0.00 0.00 0.00 60 1021.1
20260901144355 28 127 6.4 17.7 0.00 0.00 0.00 58 1020.9
20260901143352 28 254 4.8 11.3 0.00 0.00 0.00 57 1021.0
20260901142346 28 245 6.4 14.5 0.00 0.00 0.00 56 1021.0
20260901141349 28 203 3.2 16.1 0.00 0.00 0.00 56 1020.7
20260901140342 28 118 4.8 17.7 0.00 0.00 0.00 55 1020.6
20260901135356 28 204 4.8 20.9 0.00 0.00 0.00 55 1021.1
20260901134350 28 140 9.7 16.1 0.00 0.00 0.00 55 1020.9
20260901133344 29 143 11.3 17.7 0.00 0.00 0.00 53 1021.2
20260901132355 29 48 3.2 16.1 0.00 0.00 0.00 52 1021.4
20260901131351 29 117 4.8 14.5 0.00 0.00 0.00 55 1021.6
20260901130344 28 204 6.4 14.5 0.00 0.00 0.00 56 1021.7
20260901125344 28 231 8.0 19.3 0.00 0.00 0.00 57 1021.7
20260901124359 28 128 9.7 25.7 0.00 0.00 0.00 56 1021.6
20260901123342 29 176 8.0 24.1 0.00 0.00 0.00 56 1021.9
20260901122340 28 182 9.7 19.3 0.00 0.00 0.00 56 1021.8
20260901121359 28 177 14.5 29.0 0.00 0.00 0.00 56 1022.0
20260901120354 28 157 6.4 29.0 0.00 0.00 0.00 57 1022.0
20260901115347 29 144 12.9 24.1 0.00 0.00 0.00 54 1022.0
20260901114341 29 106 4.8 17.7 0.00 0.00 0.00 53 1022.1
20260901113357 29 328 1.6 27.4 0.00 0.00 0.00 53 1022.1
20260901112348 29 154 4.8 20.9 0.00 0.00 0.00 52 1022.3
20260901111340 28 227 12.9 27.4 0.00 0.00 0.00 52 1022.2
20260901110352 29 200 9.7 19.3 0.00 0.00 0.00 52 1022.2
20260901105346 29 147 4.8 16.1 0.00 0.00 0.00 50 1022.3
20260901104400 28 239 6.4 17.7 0.00 0.00 0.00 49 1022.3
20260901103400 28 314 6.4 24.1 0.00 0.00 0.00 50 1022.4
20260901102350 28 147 6.4 17.7 0.00 0.00 0.00 50 1022.3
20260901101350 28 222 6.4 17.7 0.00 0.00 0.00 48 1022.5
20260901100348 28 21 4.8 12.9 0.00 0.00 0.00 47 1022.2
20260901095358 28 209 3.2 17.7 0.00 0.00 0.00 48 1022.3
20260901094351 28 227 6.4 12.9 0.00 0.00 0.00 47 1022.2
20260901093352 28 240 4.8 11.3 0.00 0.00 0.00 49 1022.1
20260901092349 28 216 8.0 12.9 0.00 0.00 0.00 49 1022.0
20260901091344 28 114 0.0 8.0 0.00 0.00 0.00 51 1022.0
20260901090402 27 214 3.2 11.3 0.00 0.00 0.00 52 1021.8
20260901085352 27 143 1.6 8.0 0.00 0.00 0.00 54 1021.7
20260901084345 27 57 3.2 6.4 0.00 0.00 0.00 57 1021.6
20260901083345 26 57 1.6 4.8 0.00 0.00 0.00 61 1021.5
20260901082342 26 58 1.6 4.8 0.00 0.00 0.00 64 1021.6
20260901081342 26 55 0.0 3.2 0.00 0.00 0.00 67 1021.5
20260901080342 25 55 0.0 3.2 0.00 0.00 0.00 69 1021.5
20260901075357 25 56 0.0 3.2 0.00 0.00 0.00 72 1021.4
20260901074348 25 56 0.0 3.2 0.00 0.00 0.00 74 1021.6
20260901073351 24 56 1.6 6.4 0.00 0.00 0.00 77 1021.7
20260901072341 23 53 0.0 6.4 0.00 0.00 0.00 79 1021.6
20260901071340 23 49 1.6 4.8 0.00 0.00 0.00 80 1021.4
20260901070345 23 50 0.0 4.8 0.00 0.00 0.00 80 1021.6
20260901065338 23 50 0.0 0.0 0.00 0.00 0.00 81 1021.6
20260901064359 22 50 0.0 0.0 0.00 0.00 0.00 82 1021.7
20260901063343 22 50 0.0 3.2 0.00 0.00 0.00 82 1021.7
20260901062358 22 50 0.0 0.0 0.00 0.00 0.00 82 1021.7
20260901061359 22 50 0.0 3.2 0.00 0.00 0.00 82 1021.7
20260901060340 22 51 0.0 3.2 0.00 0.00 0.00 82 1021.6
20260901055342 22 51 1.6 3.2 0.00 0.00 0.00 83 1021.5
20260901054347 22 51 1.6 3.2 0.00 0.00 0.00 83 1021.5
20260901053343 22 51 0.0 3.2 0.00 0.00 0.00 82 1021.4
20260901052338 22 51 0.0 1.6 0.00 0.00 0.00 82 1021.4
20260901051357 21 51 0.0 1.6 0.00 0.00 0.00 82 1021.3
20260901050338 21 51 0.0 1.6 0.00 0.00 0.00 82 1021.3
20260901045357 22 51 0.0 0.0 0.00 0.00 0.00 82 1021.3
20260901044342 22 51 0.0 0.0 0.00 0.00 0.00 81 1021.3
20260901043345 22 51 0.0 1.6 0.00 0.00 0.00 81 1021.5
20260901042340 22 51 0.0 1.6 0.00 0.00 0.00 81 1021.5
20260901041341 22 51 0.0 1.6 0.00 0.00 0.00 81 1021.5